Weather History for KBLF - June, 2013

Change the Weather History Date:

Wednesday, June 19, 2013

  Actual Average Record
Temperature  
Mean Temperature 71 °F 71 °F  
Max Temperature 82 °F 79 °F 88 °F (2007)
Min Temperature 60 °F 62 °F 48 °F (1965)
Degree Days  
Heating Degree Days 0 0  
Month to date heating degree days 0 21  
Since 1 June heating degree days 0 21  
Since 1 July heating degree days 4686 4587  
Cooling Degree Days 6 6  
Month to date cooling degree days 100 90  
Year to date cooling degree days 214 181  
Since 1 June cooling degree days 100 90  
Growing Degree Days 20 (Base 50)    
Moisture  
Dew Point 58 °F    
Average Humidity 65    
Maximum Humidity 90    
Minimum Humidity 39    
Precipitation  
Precipitation 0.00 in 0.13 in 1.12 in (1976)
Month to date precipitation 3.79 2.68  
Year to date precipitation 22.32 19.50  
Snow  
Snow 0.00 in - - ()
Month to date snowfall 0.0  
Since 1 June snowfall 0.0  
Since 1 July snowfall 56.0  
Snow Depth 0.00 in    
Sea Level Pressure  
Sea Level Pressure 30.06 in    
Wind  
Wind Speed 3 mph (West)    
Max Wind Speed 10 mph    
Max Gust Speed -    
Visibility 5 miles    
Events Fog    
T = Trace of Precipitation, MM = Missing Value Source: NWS Daily Summary

Daily Weather History Graph

Daily Weather History Graph

Search for Another Location

Airport or City:

Trip Planner

Search our weather history database for the weather conditions in past years. The results will help you decide how hot, cold, wet, or windy it might be!

Date:

Astronomy

Jun. 19, 2013 Rise Set
Actual Time 6:04 AM EDT 8:48 PM EDT
Civil Twilight 5:33 AM EDT 9:19 PM EDT
Nautical Twilight 4:54 AM EDT 9:58 PM EDT
Astronomical Twilight 4:10 AM EDT 10:41 PM EDT
Moon 4:42 PM EDT (6/19) 2:43 AM EDT (6/19)
Length of Visible Light 15h 46m
Length of Day
14h 44m
Waxing Gibbous, 80% of the Moon is Illuminated
Jun 19
Waxing Gibbous
Jun 23
Full
Jun 30
Last Quarter
Jul 8
New
Jul 15
First Quarter

Hourly Weather History & Observations

Time (EDT) Temp. Heat Index Dew Point Humidity Pressure Visibility Wind Dir Wind Speed Gust Speed Precip Events Conditions
12:17 AM 62.6 °F - 57.2 °F 82% 30.05 in 1.8 mi West 4.6 mph - N/A   Partly Cloudy
12:25 AM 60.8 °F - 57.2 °F 88% 30.05 in 0.2 mi West 5.8 mph - N/A Fog Fog
12:52 AM 61.0 °F - 57.9 °F 90% 29.96 in 0.5 mi WSW 3.5 mph - N/A Fog Fog
1:06 AM 62.6 °F - 59.0 °F 88% 30.05 in 1.2 mi Calm Calm - N/A   Mostly Cloudy
1:11 AM 60.8 °F - 57.2 °F 88% 30.05 in 1.0 mi West 3.5 mph - N/A   Mostly Cloudy
1:21 AM 62.6 °F - 59.0 °F 88% 30.05 in 2.0 mi West 4.6 mph - N/A   Overcast
1:28 AM 62.6 °F - 59.0 °F 88% 30.05 in 1.0 mi WSW 3.5 mph - N/A   Overcast
1:37 AM 62.6 °F - 59.0 °F 88% 30.05 in 1.8 mi West 4.6 mph - N/A   Overcast
1:40 AM 62.6 °F - 59.0 °F 88% 30.05 in 3.0 mi West 5.8 mph - N/A   Mostly Cloudy
1:47 AM 62.6 °F - 59.0 °F 88% 30.04 in 1.8 mi West 4.6 mph - 0.01 in   Mostly Cloudy
1:50 AM 62.6 °F - 59.0 °F 88% 30.04 in 1.0 mi West 3.5 mph - 0.01 in   Mostly Cloudy
1:52 AM 62.1 °F - 59.0 °F 90% 29.96 in 0.8 mi West 3.5 mph - 0.01 in   Mostly Cloudy
2:03 AM 60.8 °F - 57.2 °F 88% 30.04 in 0.5 mi West 3.5 mph - N/A Fog Fog
2:52 AM 62.1 °F - 59.0 °F 90% 29.97 in 0.2 mi WSW 4.6 mph - N/A Fog Fog
3:52 AM 60.1 °F - 57.9 °F 93% 29.96 in 0.2 mi Calm Calm - N/A Fog Fog
4:30 AM 60.8 °F - 57.2 °F 88% 30.04 in 1.0 mi Calm Calm - N/A   Overcast
4:34 AM 60.8 °F - 57.2 °F 88% 30.04 in 2.0 mi Calm Calm - N/A   Overcast
4:42 AM 60.8 °F - 57.2 °F 88% 30.04 in 9.0 mi WSW 3.5 mph - N/A   Overcast
4:52 AM 61.0 °F - 57.0 °F 87% 29.96 in 7.0 mi WNW 3.5 mph - N/A   Mostly Cloudy
4:57 AM 60.8 °F - 57.2 °F 88% 30.04 in 1.2 mi WNW 3.5 mph - N/A   Mostly Cloudy
4:59 AM 60.8 °F - 57.2 °F 88% 30.04 in 0.8 mi WNW 3.5 mph - N/A   Mist
5:08 AM 60.8 °F - 55.4 °F 82% 30.05 in 0.2 mi West 3.5 mph - N/A Fog Fog
5:38 AM 60.8 °F - 57.2 °F 88% 30.05 in 1.0 mi Calm Calm - N/A   Overcast
5:41 AM 60.8 °F - 57.2 °F 88% 30.05 in 1.0 mi Calm Calm - N/A   Overcast
5:47 AM 60.8 °F - 57.2 °F 88% 30.06 in 0.8 mi Calm Calm - N/A   Overcast
5:52 AM 60.1 °F - 57.0 °F 90% 29.97 in 0.8 mi Calm Calm - N/A   Overcast
6:27 AM 60.8 °F - 57.2 °F 88% 30.08 in 0.2 mi West 3.5 mph - N/A Fog Fog
6:52 AM 60.1 °F - 57.9 °F 93% 29.99 in 0.2 mi Calm Calm - N/A Fog Fog
7:21 AM 60.8 °F - 57.2 °F 88% 30.08 in 0.2 mi Calm Calm - N/A Fog Fog
7:52 AM 62.1 °F - 59.0 °F 90% 30.01 in 0.2 mi Calm Calm - N/A Fog Fog
8:46 AM 64.4 °F - 60.8 °F 88% 30.12 in 1.2 mi West 3.5 mph - N/A   Overcast
8:52 AM 64.0 °F - 59.0 °F 84% 30.04 in 1.8 mi West 4.6 mph - N/A   Haze
8:59 AM 64.4 °F - 60.8 °F 88% 30.13 in 0.8 mi Calm Calm - N/A   Overcast
9:31 AM 64.4 °F - 60.8 °F 88% 30.13 in 1.2 mi WNW 3.5 mph - N/A   Haze
9:35 AM 64.4 °F - 60.8 °F 88% 30.13 in 3.0 mi WNW 3.5 mph - N/A   Haze
9:52 AM 64.9 °F - 60.1 °F 84% 30.05 in 6.0 mi Variable 3.5 mph - N/A   Haze
10:05 AM 66.2 °F - 60.8 °F 83% 30.13 in 10.0 mi WNW 4.6 mph - N/A   Overcast
10:36 AM 69.8 °F - 59.0 °F 68% 30.14 in 10.0 mi Calm Calm - N/A   Overcast
10:52 AM 68.0 °F - 60.1 °F 76% 30.05 in 10.0 mi Calm Calm - N/A   Mostly Cloudy
11:00 AM 69.8 °F - 60.8 °F 73% 30.14 in 10.0 mi Calm Calm - N/A   Mostly Cloudy
11:32 AM 71.6 °F - 60.8 °F 69% 30.15 in 10.0 mi West 3.5 mph - N/A   Mostly Cloudy
11:44 AM 73.4 °F - 60.8 °F 65% 30.15 in 10.0 mi Variable 3.5 mph - N/A   Mostly Cloudy
11:52 AM 72.0 °F - 60.1 °F 66% 30.06 in 10.0 mi West 6.9 mph - N/A   Mostly Cloudy
12:52 PM 73.9 °F - 57.0 °F 55% 30.06 in 10.0 mi Variable 4.6 mph - N/A   Scattered Clouds
1:52 PM 79.0 °F - 55.9 °F 45% 30.04 in 10.0 mi Variable 5.8 mph - N/A   Scattered Clouds
2:52 PM 79.0 °F - 54.0 °F 42% 30.03 in 10.0 mi North 4.6 mph - N/A   Scattered Clouds
3:52 PM 79.0 °F - 55.0 °F 44% 30.02 in 10.0 mi NNE 5.8 mph - N/A   Mostly Cloudy
4:52 PM 81.0 °F 80.5 °F 54.0 °F 39% 30.02 in 10.0 mi West 6.9 mph - N/A   Clear
5:52 PM 78.1 °F - 55.0 °F 45% 30.03 in 10.0 mi Variable 3.5 mph - N/A   Partly Cloudy
6:52 PM 75.9 °F - 57.0 °F 52% 30.05 in 10.0 mi North 5.8 mph - N/A   Overcast
7:52 PM 77.0 °F - 57.9 °F 52% 30.05 in 10.0 mi North 3.5 mph - N/A   Mostly Cloudy
8:52 PM 72.0 °F - 57.9 °F 61% 30.07 in 10.0 mi Calm Calm - N/A   Partly Cloudy
9:52 PM 70.0 °F - 57.9 °F 65% 30.10 in 10.0 mi Calm Calm - N/A   Scattered Clouds
10:52 PM 69.1 °F - 60.1 °F 73% 30.11 in 10.0 mi Calm Calm - N/A   Overcast
11:13 PM 69.8 °F - 60.8 °F 73% 30.21 in 10.0 mi Variable 3.5 mph - N/A   Overcast
11:52 PM 66.9 °F - 60.1 °F 79% 30.12 in 10.0 mi Calm Calm - N/A   Mostly Cloudy